SL-8 DEB, 45514

Orbit data source: Space-Track

SL-8 DEB, 45514 is space debris in LEO originally from a launch on Mon, 17 Mar 1980 UTC launched from the Plesetsk Missile And Space Complex (PKMTR). Debris objects in space refer to the collection of defunct objects orbiting the Earth. Examples of debris include non-operational satellites, rocket bodies, and fragments generated from explosions, collisions, or faulty payload assembly.

Loading next visibility...
Identifier
45514, 1980-022D
Orbit
LEO
Country
Flag of CISCIS
Related business
Manufacturer
Unknown
Mission
Spacecraft
Bus & Motor
Unknown
Mass
Unknown
Launch date (UTC)
1980-03-17 (46 years ago)
Launch vehicle
Unknown
Launch site
Plesetsk Missile And Space Complex (PKMTR)
Object type
Payload
Rocket body
Debris
Shape & HBR
Unknown shape, 0.1 m
Radar Cross Section
Small (<0.1 m²)

Expand to show TLE details & history
Last TLE update: 4 days ago

TLE from 4 days ago
0 SL-8 DEB
1 45514U 80022D   25302.99726759  .00000862  00000-0  80452-3 0  9995
2 45514  82.9439  39.6405 0032683 151.9708 208.3221 13.80550542580550
Epoch: 2025-10-29T23:56Z
TLE epoch observation values (Epoch: 2025-10-29T23:56:03.919Z)
Latitude
0.00004°
Longitude
2.0618°
Altitude
985.982 km
Speed
7.348 km/s
True Right ascension
02h 38m 33s
True Declination
0° 00' 00"
Sunlit
Object was in full shadow at epoch
Visualization orbit readout
Latitude
Unknown
Longitude
Unknown
Altitude
Unknown
Speed
Unknown
Apparent Right ascension
Unknown
Apparent Declination
Unknown
Sunlit
N/A
Visualization observer readout
Local Sidereal Time
06:25:27
Azimuth
Unknown
Elevation
Unknown
Doppler factor
Unknown
Orbital elements
Apogee altitude
983.056 km
Perigee altitude
935.095 km
Semi-major axis
7,337.213 km
Eccentricity
0.00327
Inclination
82.9439°
RAAN
39.6405°
Arg. of periapsis
151.9708°
True anomaly
208.14505°
Mean anomaly
208.3221°
Eccentric anomaly
208.23351°
Mean motion
3.4534 °/min
Orbital period
104.25 mins
BSTAR
0.00080452
Loading maneuver chart data...
Computing Atmospheric mass density...
Loading historical data...
Loading historical data...
Loading historical data...
Loading historical data...
Loading historical data...
Loading historical data...
Loading historical data...
Other satellites on launch #22 in the year 1980 (1980-03-17 UTC)

Documentation

Showing up to 5 results
|